星链-2270 (STARLINK-2270 )

导读

STARLINK-2270是美国SpaceX公司星链(Starlink)星座中的一颗低地球轨道通信卫星,于2021年3月24日发射升空,星链项目旨在通过近地轨道卫星群为全球提供高速互联网接入服务,覆盖网络基础设施缺失的偏远地区、海洋等场景,STARLINK-2270的入轨进一步扩充了星链星座的网络覆盖能力与通信容量,助力全球卫星互联网服务部署。

Basic Information
目录编号:
48000
目录名称:
STARLINK-2270
国际标识:
2021-024Z
轨道中心:
EARTH
卫星名称:
星链-2270
卫星全名:
星链-2270 (STARLINK-2270 )
卫星状态:
在轨 (已飞行1997 天)
发射日期:
2021-03-24 UTC
国别 :
美国 (US)
星等 :
--
This satellite is enrolled in the Space Conjunction Data Service (SCDS) and the current flight risk assessment level is: No High Risk
Orbit Information
数据来源 国际轨道数据
星历时间: 2026-09-11T06:41:13+0800
17小时前
查看轨道信息
半长轴: 6795.038km
偏心率: 0.0002481
轨道倾角: 53.124°
近地点辐角 277.516°
升交点赤经 86.936°
平近点角 82.557°
近地点: 415.215km
远地点: 418.587km
周期: 92.907分钟
每日圈数: 15.499403
Detailed Information
固有亮度:
5
最大亮度:
2.5
卫星平台:
Starlink V1.0
覆盖范围:
全球
运营商:
太空探索技术公司
运营商所在国:
美国
制造商(研发单位):
太空探索技术公司
制造商所在国:
美国
使用方式:
暂无
Satellite Introduction
星链(Starlink)计划是由太空探索技术公司(SpaceX)提出的一个巨型低轨卫星互联网星座项目,计划在2019年至2024年间在太空搭建由约1.2万颗卫星组成的“星链”网络,其中1584颗将部署在地球上空550千米处的近地轨道,并从2020年开始工作。该卫星仍在工作。
2D Orbit Map
3D Orbit Map
Orbit Altitude Analysis Chart
Orbit Inclination Analysis Chart
Orbit Comprehensive Analysis Chart
View Comprehensive Chart
Conjunction Data List
Event ID Objects TCA Miss Dist (km) Collision Risk Probability Collision Risk Index (CRI) Action
CDM_260913-013304-800005-859221
2026-09-13T
01:33:40+0000
1.037 km
极远距离
1.682772E-5 中风险 0.6
CDM_260912-172702-863204-800021
2026-09-12T
17:27:36+0000
2.398 km
极远距离
1.484364E-6 低风险 0.38
Miss Distance Evolution Trend with All Objects
Collision Probability Evolution Trend with All Objects